Time,TemperatureF,DewpointF,PressureIn,WindDirection,WindDirectionDegrees,WindSpeedMPH,WindSpeedGustMPH,Humidity,HourlyPrecipIn,Conditions,Clouds,dailyrainin,SolarRadiationWatts/m^2,SoftwareType,DateUTC
2013-07-02 00:00:00,74.7,71.6,29.92,SSE,149,2.0,4.0,90,0.00,,,0.00,0,Wunderground v.1.15,2013-07-02 04:00:00,
2013-07-02 00:10:00,74.8,71.7,29.92,SE,146,2.0,2.0,90,0.00,,,0.00,0,Wunderground v.1.15,2013-07-02 04:10:00,
2013-07-02 00:20:00,74.8,71.7,29.92,SSE,158,2.0,2.0,90,0.00,,,0.00,0,Wunderground v.1.15,2013-07-02 04:20:00,
2013-07-02 00:30:00,75.0,71.9,29.92,SE,138,2.0,2.0,90,0.00,,,0.00,0,Wunderground v.1.15,2013-07-02 04:30:00,
2013-07-02 00:40:00,74.9,71.4,29.92,SSE,150,2.0,2.0,89,0.00,,,0.00,0,Wunderground v.1.15,2013-07-02 04:40:00,
2013-07-02 00:50:00,74.8,71.7,29.93,South,169,1.0,1.0,90,0.00,,,0.00,0,Wunderground v.1.15,2013-07-02 04:50:00,
2013-07-02 01:00:00,74.6,71.5,29.94,SSE,154,0.0,3.0,90,0.00,,,0.00,0,Wunderground v.1.15,2013-07-02 05:00:00,
2013-07-02 01:10:00,74.6,71.5,29.93,SSE,151,0.0,3.0,90,0.00,,,0.00,0,Wunderground v.1.15,2013-07-02 05:10:00,
2013-07-02 01:20:00,74.4,71.3,29.94,SSE,153,1.0,1.0,90,0.00,,,0.00,0,Wunderground v.1.15,2013-07-02 05:20:00,
2013-07-02 01:30:00,74.1,71.0,29.93,SSE,153,0.0,0.0,90,0.00,,,0.00,0,Wunderground v.1.15,2013-07-02 05:30:00,
2013-07-02 01:40:00,74.0,71.2,29.93,SSE,153,0.0,0.0,91,0.00,,,0.00,0,Wunderground v.1.15,2013-07-02 05:40:00,
2013-07-02 01:50:00,73.8,71.0,29.93,SSE,153,0.0,0.0,91,0.00,,,0.00,0,Wunderground v.1.15,2013-07-02 05:50:00,
2013-07-02 02:00:00,73.6,70.8,29.93,SSE,153,0.0,0.0,91,0.00,,,0.00,0,Wunderground v.1.15,2013-07-02 06:00:00,
2013-07-02 02:10:00,73.2,70.4,29.93,SSE,153,0.0,0.0,91,0.00,,,0.00,0,Wunderground v.1.15,2013-07-02 06:10:00,
2013-07-02 02:20:00,72.7,70.2,29.93,SSE,153,0.0,0.0,92,0.00,,,0.00,0,Wunderground v.1.15,2013-07-02 06:20:00,
2013-07-02 02:30:00,72.8,70.7,29.93,SSE,153,0.0,0.0,93,0.00,,,0.00,0,Wunderground v.1.15,2013-07-02 06:30:00,
2013-07-02 02:40:00,72.9,70.8,29.93,SSE,152,0.0,0.0,93,0.00,,,0.00,0,Wunderground v.1.15,2013-07-02 06:40:00,
2013-07-02 02:50:00,73.0,70.9,29.93,SSE,152,0.0,0.0,93,0.00,,,0.00,0,Wunderground v.1.15,2013-07-02 06:50:00,
2013-07-02 03:00:00,73.1,71.0,29.93,SSE,152,0.0,0.0,93,0.00,,,0.00,0,Wunderground v.1.15,2013-07-02 07:00:00,
2013-07-02 03:10:00,73.1,71.0,29.93,SSE,152,0.0,0.0,93,0.00,,,0.00,0,Wunderground v.1.15,2013-07-02 07:10:00,
2013-07-02 03:20:00,73.1,71.0,29.93,SSE,152,0.0,0.0,93,0.00,,,0.00,0,Wunderground v.1.15,2013-07-02 07:20:00,
2013-07-02 03:30:00,73.1,71.0,29.94,SSE,152,0.0,0.0,93,0.00,,,0.00,0,Wunderground v.1.15,2013-07-02 07:30:00,
2013-07-02 03:40:00,73.2,71.1,29.94,SSE,157,0.0,0.0,93,0.00,,,0.00,0,Wunderground v.1.15,2013-07-02 07:40:00,
2013-07-02 03:50:00,73.4,71.3,29.94,SSE,156,0.0,0.0,93,0.00,,,0.00,0,Wunderground v.1.15,2013-07-02 07:50:00,
2013-07-02 04:00:00,73.5,71.4,29.94,SSE,153,1.0,1.0,93,0.00,,,0.00,0,Wunderground v.1.15,2013-07-02 08:00:00,
2013-07-02 04:10:00,73.7,71.5,29.94,SSE,160,0.0,0.0,93,0.00,,,0.00,0,Wunderground v.1.15,2013-07-02 08:10:00,
2013-07-02 04:20:00,73.6,71.1,29.94,SSE,150,0.0,2.0,92,0.00,,,0.00,0,Wunderground v.1.15,2013-07-02 08:20:00,
2013-07-02 04:30:00,73.7,71.5,29.94,SSE,158,2.0,4.0,93,0.00,,,0.00,0,Wunderground v.1.15,2013-07-02 08:30:00,
2013-07-02 04:40:00,73.8,71.6,29.94,SSE,165,1.0,3.0,93,0.00,,,0.00,0,Wunderground v.1.15,2013-07-02 08:40:00,
2013-07-02 04:50:00,73.9,71.4,29.95,SSE,162,1.0,1.0,92,0.00,,,0.00,0,Wunderground v.1.15,2013-07-02 08:50:00,
2013-07-02 05:00:00,74.1,71.6,29.95,SSE,162,0.0,0.0,92,0.00,,,0.00,0,Wunderground v.1.15,2013-07-02 09:00:00,
2013-07-02 05:10:00,74.2,71.7,29.95,SSE,165,0.0,0.0,92,0.00,,,0.00,0,Wunderground v.1.15,2013-07-02 09:10:00,
2013-07-02 05:20:00,74.3,71.5,29.95,SSE,165,0.0,0.0,91,0.00,,,0.00,0,Wunderground v.1.15,2013-07-02 09:20:00,
2013-07-02 05:30:00,74.2,71.7,29.95,SSE,165,0.0,0.0,92,0.00,,,0.00,0,Wunderground v.1.15,2013-07-02 09:30:00,
2013-07-02 05:40:00,73.7,71.2,29.96,SSE,167,0.0,0.0,92,0.00,,,0.01,0,Wunderground v.1.15,2013-07-02 09:40:00,
2013-07-02 05:50:00,73.6,71.4,29.96,SSE,156,0.0,0.0,93,0.00,,,0.01,0,Wunderground v.1.15,2013-07-02 09:50:00,
2013-07-02 06:00:00,73.5,71.4,29.97,SSE,156,0.0,0.0,93,0.00,,,0.01,0,Wunderground v.1.15,2013-07-02 10:00:00,
2013-07-02 06:10:00,73.4,71.3,29.97,SSE,156,0.0,0.0,93,0.00,,,0.01,11,Wunderground v.1.15,2013-07-02 10:10:00,
2013-07-02 06:20:00,73.4,71.3,29.97,SSE,156,0.0,3.0,93,0.00,,,0.01,19,Wunderground v.1.15,2013-07-02 10:20:00,
2013-07-02 06:30:00,73.4,71.3,29.97,SE,140,0.0,2.0,93,0.00,,,0.01,12,Wunderground v.1.15,2013-07-02 10:30:00,
2013-07-02 06:40:00,73.6,71.4,29.98,South,175,1.0,1.0,93,0.00,,,0.01,19,Wunderground v.1.15,2013-07-02 10:40:00,
2013-07-02 06:50:00,73.8,71.3,29.98,SSE,162,0.0,0.0,92,0.00,,,0.01,21,Wunderground v.1.15,2013-07-02 10:50:00,
2013-07-02 07:00:00,73.9,71.4,29.98,SSE,156,0.0,0.0,92,0.00,,,0.01,28,Wunderground v.1.15,2013-07-02 11:00:00,
2013-07-02 07:10:00,74.0,71.2,29.99,SE,134,1.0,1.0,91,0.00,,,0.01,40,Wunderground v.1.15,2013-07-02 11:10:00,
2013-07-02 07:20:00,74.2,71.4,29.99,SSE,152,1.0,1.0,91,0.00,,,0.01,49,Wunderground v.1.15,2013-07-02 11:20:00,
2013-07-02 07:30:00,74.4,71.6,29.99,SSE,161,0.0,0.0,91,0.00,,,0.01,62,Wunderground v.1.15,2013-07-02 11:30:00,
2013-07-02 07:40:00,74.6,71.5,29.99,SSE,160,0.0,0.0,90,0.00,,,0.01,81,Wunderground v.1.15,2013-07-02 11:40:00,
2013-07-02 07:50:00,75.0,71.9,29.99,SSE,164,1.0,3.0,90,0.00,,,0.01,139,Wunderground v.1.15,2013-07-02 11:50:00,
2013-07-02 07:59:00,75.4,71.9,30.00,SE,146,2.0,3.0,89,0.00,,,0.01,109,Wunderground v.1.15,2013-07-02 11:59:00,
2013-07-02 08:10:00,75.6,72.1,30.00,SSE,161,1.0,1.0,89,0.00,,,0.01,134,Wunderground v.1.15,2013-07-02 12:10:00,
2013-07-02 08:20:00,76.2,72.4,30.00,South,171,2.0,2.0,88,0.00,,,0.01,279,Wunderground v.1.15,2013-07-02 12:20:00,
2013-07-02 08:30:00,77.4,72.9,30.00,SSE,168,3.0,5.0,86,0.00,,,0.01,234,Wunderground v.1.15,2013-07-02 12:30:00,
2013-07-02 08:40:00,77.7,73.2,30.00,SSE,161,4.0,4.0,86,0.00,,,0.01,554,Wunderground v.1.15,2013-07-02 12:40:00,
2013-07-02 08:50:00,78.0,73.1,30.00,SE,142,4.0,5.0,85,0.00,,,0.01,267,Wunderground v.1.15,2013-07-02 12:50:00,
2013-07-02 09:00:00,77.8,72.6,30.01,SSE,168,3.0,3.0,84,0.00,,,0.01,237,Wunderground v.1.15,2013-07-02 13:00:00,
2013-07-02 09:10:00,77.8,72.9,30.01,SSE,161,2.0,2.0,85,0.00,,,0.01,248,Wunderground v.1.15,2013-07-02 13:10:00,
2013-07-02 09:20:00,77.8,72.9,30.01,SSE,157,2.0,2.0,85,0.00,,,0.01,339,Wunderground v.1.15,2013-07-02 13:20:00,
2013-07-02 09:30:00,78.7,72.7,30.01,SSE,165,2.0,4.0,82,0.00,,,0.01,285,Wunderground v.1.15,2013-07-02 13:30:00,
2013-07-02 09:40:00,78.9,72.9,30.02,South,169,3.0,4.0,82,0.00,,,0.01,415,Wunderground v.1.15,2013-07-02 13:40:00,
2013-07-02 09:50:00,79.3,73.0,30.02,SSE,166,3.0,6.0,81,0.00,,,0.01,325,Wunderground v.1.15,2013-07-02 13:50:00,
2013-07-02 10:00:00,79.2,72.5,30.01,SSE,154,3.0,6.0,80,0.00,,,0.01,348,Wunderground v.1.15,2013-07-02 14:00:00,
2013-07-02 10:10:00,79.8,73.1,30.01,SE,140,2.0,5.0,80,0.00,,,0.01,396,Wunderground v.1.15,2013-07-02 14:10:00,
2013-07-02 10:20:00,80.5,73.4,30.02,SW,221,3.0,3.0,79,0.00,,,0.01,417,Wunderground v.1.15,2013-07-02 14:20:00,
2013-07-02 10:30:00,80.7,73.6,30.02,SSE,158,4.0,12.0,79,0.00,,,0.01,536,Wunderground v.1.15,2013-07-02 14:30:00,
2013-07-02 10:40:00,81.2,73.3,30.02,South,178,5.0,5.0,77,0.00,,,0.01,376,Wunderground v.1.15,2013-07-02 14:40:00,
2013-07-02 10:50:00,80.8,72.9,30.02,SSE,161,3.0,3.0,77,0.00,,,0.01,473,Wunderground v.1.15,2013-07-02 14:50:00,
2013-07-02 11:00:00,81.4,72.7,30.02,South,180,3.0,4.0,75,0.00,,,0.01,513,Wunderground v.1.15,2013-07-02 15:00:00,
2013-07-02 11:10:00,81.2,72.5,30.03,SSE,164,5.0,7.0,75,0.00,,,0.01,431,Wunderground v.1.15,2013-07-02 15:10:00,
2013-07-02 11:20:00,81.6,73.7,30.03,SSE,152,3.0,3.0,77,0.00,,,0.01,568,Wunderground v.1.15,2013-07-02 15:20:00,
2013-07-02 11:30:00,82.8,73.3,30.03,SSE,155,1.0,3.0,73,0.00,,,0.01,587,Wunderground v.1.15,2013-07-02 15:30:00,
2013-07-02 11:40:00,82.0,72.9,30.03,South,190,3.0,3.0,74,0.00,,,0.01,455,Wunderground v.1.15,2013-07-02 15:40:00,
2013-07-02 11:50:00,81.6,72.9,30.03,South,171,4.0,4.0,75,0.00,,,0.01,489,Wunderground v.1.15,2013-07-02 15:50:00,
2013-07-02 12:00:00,81.6,73.3,30.03,SSE,157,4.0,4.0,76,0.00,,,0.01,459,Wunderground v.1.15,2013-07-02 16:00:00,
2013-07-02 12:10:00,82.8,74.8,30.03,SW,236,3.0,3.0,77,0.00,,,0.01,889,Wunderground v.1.15,2013-07-02 16:10:00,
2013-07-02 12:20:00,84.0,74.4,30.03,South,169,4.0,4.0,73,0.00,,,0.01,993,Wunderground v.1.15,2013-07-02 16:20:00,
2013-07-02 12:30:00,84.0,73.6,30.03,SSE,163,2.0,3.0,71,0.00,,,0.01,559,Wunderground v.1.15,2013-07-02 16:30:00,
2013-07-02 12:40:00,83.1,73.5,30.03,ESE,115,6.0,9.0,73,0.00,,,0.01,559,Wunderground v.1.15,2013-07-02 16:40:00,
2013-07-02 12:50:00,83.6,73.2,30.02,SSW,193,3.0,3.0,71,0.00,,,0.01,1162,Wunderground v.1.15,2013-07-02 16:50:00,
2013-07-02 13:00:00,83.3,73.3,30.02,South,177,4.0,4.0,72,0.00,,,0.01,485,Wunderground v.1.15,2013-07-02 17:00:00,
2013-07-02 13:10:00,84.6,73.3,30.02,SE,138,4.0,14.0,69,0.00,,,0.01,1104,Wunderground v.1.15,2013-07-02 17:10:00,
2013-07-02 13:20:00,84.7,73.4,30.02,South,171,4.0,5.0,69,0.00,,,0.01,1220,Wunderground v.1.15,2013-07-02 17:20:00,
2013-07-02 13:30:00,85.2,74.3,30.02,South,169,5.0,5.0,70,0.00,,,0.01,1060,Wunderground v.1.15,2013-07-02 17:30:00,
2013-07-02 13:40:00,84.2,72.9,30.02,SSE,150,3.0,4.0,69,0.00,,,0.01,306,Wunderground v.1.15,2013-07-02 17:40:00,
2013-07-02 13:50:00,83.9,73.1,30.02,South,169,4.0,5.0,70,0.00,,,0.01,352,Wunderground v.1.15,2013-07-02 17:50:00,
2013-07-02 14:00:00,83.8,73.8,30.02,SSE,167,3.0,3.0,72,0.00,,,0.01,501,Wunderground v.1.15,2013-07-02 18:00:00,
2013-07-02 14:10:00,83.2,72.8,30.02,SE,128,2.0,15.0,71,0.00,,,0.01,360,Wunderground v.1.15,2013-07-02 18:10:00,
2013-07-02 14:20:00,82.3,72.8,30.02,South,171,4.0,4.0,73,0.00,,,0.01,304,Wunderground v.1.15,2013-07-02 18:20:00,
2013-07-02 14:30:00,82.0,73.3,30.02,SSE,163,4.0,6.0,75,0.00,,,0.01,330,Wunderground v.1.15,2013-07-02 18:30:00,
2013-07-02 14:40:00,81.5,72.8,30.02,SE,142,5.0,5.0,75,0.00,,,0.01,311,Wunderground v.1.15,2013-07-02 18:40:00,
2013-07-02 14:50:00,81.3,72.2,30.03,South,170,4.0,4.0,74,0.00,,,0.01,330,Wunderground v.1.15,2013-07-02 18:50:00,
2013-07-02 15:00:00,81.7,73.0,30.02,South,174,3.0,4.0,75,0.00,,,0.01,404,Wunderground v.1.15,2013-07-02 19:00:00,
2013-07-02 15:10:00,82.1,73.0,30.02,SSW,198,3.0,4.0,74,0.00,,,0.01,575,Wunderground v.1.15,2013-07-02 19:10:00,
2013-07-02 15:20:00,82.1,73.4,30.02,SSE,148,2.0,2.0,75,0.00,,,0.01,323,Wunderground v.1.15,2013-07-02 19:20:00,
2013-07-02 15:30:00,80.6,72.3,30.02,SSE,161,5.0,5.0,76,0.00,,,0.01,283,Wunderground v.1.15,2013-07-02 19:30:00,
2013-07-02 15:40:00,80.9,73.0,30.02,South,169,4.0,4.0,77,0.00,,,0.01,438,Wunderground v.1.15,2013-07-02 19:40:00,
2013-07-02 15:50:00,81.5,73.2,30.03,South,182,2.0,2.0,76,0.00,,,0.01,455,Wunderground v.1.15,2013-07-02 19:50:00,
2013-07-02 16:00:00,81.5,72.8,30.02,SSE,165,2.0,2.0,75,0.00,,,0.01,656,Wunderground v.1.15,2013-07-02 20:00:00,
2013-07-02 16:10:00,82.8,73.7,30.02,South,182,2.0,4.0,74,0.00,,,0.01,619,Wunderground v.1.15,2013-07-02 20:10:00,
2013-07-02 16:20:00,81.2,72.5,30.02,SSE,165,3.0,3.0,75,0.00,,,0.01,341,Wunderground v.1.15,2013-07-02 20:20:00,
2013-07-02 16:30:00,81.7,73.4,30.02,South,184,3.0,5.0,76,0.00,,,0.01,355,Wunderground v.1.15,2013-07-02 20:30:00,
2013-07-02 16:40:00,80.6,72.3,30.03,South,175,4.0,4.0,76,0.00,,,0.01,313,Wunderground v.1.15,2013-07-02 20:40:00,
2013-07-02 16:50:00,80.5,72.2,30.03,South,188,3.0,3.0,76,0.00,,,0.01,288,Wunderground v.1.15,2013-07-02 20:50:00,
2013-07-02 17:00:00,80.7,72.4,30.03,SSE,158,2.0,5.0,76,0.00,,,0.01,397,Wunderground v.1.15,2013-07-02 21:00:00,
2013-07-02 17:10:00,80.3,71.6,30.04,SSE,164,4.0,4.0,75,0.00,,,0.01,171,Wunderground v.1.15,2013-07-02 21:10:00,
2013-07-02 17:20:00,79.9,71.3,30.04,South,175,2.0,2.0,75,0.00,,,0.01,241,Wunderground v.1.15,2013-07-02 21:20:00,
2013-07-02 17:30:00,79.7,71.1,30.04,SSW,203,2.0,2.0,75,0.00,,,0.01,230,Wunderground v.1.15,2013-07-02 21:30:00,
2013-07-02 17:40:00,79.6,71.0,30.04,South,190,3.0,6.0,75,0.00,,,0.01,211,Wunderground v.1.15,2013-07-02 21:40:00,
2013-07-02 17:50:00,79.1,70.9,30.04,SSE,152,3.0,6.0,76,0.00,,,0.01,163,Wunderground v.1.15,2013-07-02 21:50:00,
2013-07-02 17:59:00,78.4,70.2,30.05,South,173,4.0,4.0,76,0.00,,,0.01,141,Wunderground v.1.15,2013-07-02 21:59:00,
2013-07-02 18:10:00,78.3,70.5,30.05,WSW,245,3.0,3.0,77,0.00,,,0.01,141,Wunderground v.1.15,2013-07-02 22:10:00,
2013-07-02 18:20:00,78.2,70.4,30.05,South,177,3.0,3.0,77,0.00,,,0.01,128,Wunderground v.1.15,2013-07-02 22:20:00,
2013-07-02 18:30:00,78.0,70.6,30.06,SSE,166,2.0,3.0,78,0.00,,,0.01,120,Wunderground v.1.15,2013-07-02 22:30:00,
2013-07-02 18:40:00,77.6,70.2,30.06,SSE,167,3.0,6.0,78,0.00,,,0.01,81,Wunderground v.1.15,2013-07-02 22:40:00,
2013-07-02 18:50:00,77.3,70.3,30.06,SSE,153,4.0,4.0,79,0.00,,,0.01,72,Wunderground v.1.15,2013-07-02 22:50:00,
2013-07-02 19:00:00,77.0,70.4,30.07,SSE,163,2.0,2.0,80,0.00,,,0.01,53,Wunderground v.1.15,2013-07-02 23:00:00,
2013-07-02 19:09:00,76.8,70.5,30.06,South,169,1.0,1.0,81,0.00,,,0.01,51,Wunderground v.1.15,2013-07-02 23:09:00,
2013-07-02 19:20:00,76.6,70.7,30.06,SSE,160,2.0,2.0,82,0.00,,,0.01,60,Wunderground v.1.15,2013-07-02 23:20:00,
2013-07-02 19:30:00,76.5,70.6,30.06,SE,143,1.0,2.0,82,0.00,,,0.01,53,Wunderground v.1.15,2013-07-02 23:30:00,
2013-07-02 19:40:00,76.3,70.8,30.07,SSE,154,1.0,1.0,83,0.00,,,0.01,37,Wunderground v.1.15,2013-07-02 23:40:00,
2013-07-02 19:50:00,76.1,70.9,30.07,SSE,165,1.0,1.0,84,0.00,,,0.01,30,Wunderground v.1.15,2013-07-02 23:50:00,
2013-07-02 20:00:00,75.9,70.7,30.07,SSE,163,1.0,1.0,84,0.00,,,0.01,25,Wunderground v.1.15,2013-07-03 00:00:00,
2013-07-02 20:10:00,75.6,70.8,30.07,SSE,154,1.0,1.0,85,0.00,,,0.01,18,Wunderground v.1.15,2013-07-03 00:10:00,
2013-07-02 20:20:00,75.4,70.6,30.07,South,170,1.0,1.0,85,0.00,,,0.01,12,Wunderground v.1.15,2013-07-03 00:20:00,
2013-07-02 20:30:00,75.2,70.7,30.08,South,170,1.0,1.0,86,0.00,,,0.01,5,Wunderground v.1.15,2013-07-03 00:30:00,
2013-07-02 20:40:00,74.9,70.8,30.08,SSE,155,0.0,6.0,87,0.00,,,0.01,0,Wunderground v.1.15,2013-07-03 00:40:00,
2013-07-02 20:50:00,74.7,70.6,30.08,SSE,158,0.0,0.0,87,0.00,,,0.01,0,Wunderground v.1.15,2013-07-03 00:50:00,
2013-07-02 21:00:00,74.5,70.4,30.08,SSE,156,0.0,0.0,87,0.00,,,0.01,0,Wunderground v.1.15,2013-07-03 01:00:00,
2013-07-02 21:10:00,74.3,70.5,30.08,SSE,157,0.0,0.0,88,0.00,,,0.01,0,Wunderground v.1.15,2013-07-03 01:10:00,
2013-07-02 21:20:00,74.0,70.2,30.08,SSE,157,0.0,0.0,88,0.00,,,0.01,0,Wunderground v.1.15,2013-07-03 01:20:00,
2013-07-02 21:30:00,73.7,70.3,30.08,SSE,157,0.0,0.0,89,0.00,,,0.01,0,Wunderground v.1.15,2013-07-03 01:30:00,
2013-07-02 21:40:00,73.5,70.1,30.08,SSE,155,0.0,0.0,89,0.00,,,0.01,0,Wunderground v.1.15,2013-07-03 01:40:00,
2013-07-02 21:50:00,73.4,70.3,30.08,SSE,155,0.0,0.0,90,0.00,,,0.01,0,Wunderground v.1.15,2013-07-03 01:50:00,
2013-07-02 22:00:00,73.4,70.3,30.08,SSE,155,0.0,0.0,90,0.00,,,0.01,0,Wunderground v.1.15,2013-07-03 02:00:00,
2013-07-02 22:20:00,73.4,70.0,30.09,SSE,155,0.0,0.0,89,0.00,,,0.01,0,Wunderground v.1.15,2013-07-03 02:20:00,
2013-07-02 22:30:00,73.3,69.9,30.09,SSE,154,0.0,0.0,89,0.00,,,0.01,0,Wunderground v.1.15,2013-07-03 02:30:00,
2013-07-02 22:40:00,73.2,69.8,30.09,SE,140,0.0,3.0,89,0.00,,,0.01,0,Wunderground v.1.15,2013-07-03 02:40:00,
2013-07-02 22:50:00,73.3,69.9,30.09,SE,140,0.0,0.0,89,0.00,,,0.01,0,Wunderground v.1.15,2013-07-03 02:50:00,
2013-07-02 23:00:00,73.1,69.7,30.10,SE,140,0.0,0.0,89,0.00,,,0.01,0,Wunderground v.1.15,2013-07-03 03:00:00,
2013-07-02 23:10:00,73.1,69.7,30.10,SE,142,0.0,0.0,89,0.00,,,0.01,0,Wunderground v.1.15,2013-07-03 03:10:00,
2013-07-02 23:20:00,73.3,69.9,30.09,SE,140,1.0,2.0,89,0.00,,,0.01,0,Wunderground v.1.15,2013-07-03 03:20:00,
2013-07-02 23:30:00,73.5,69.7,30.10,SSE,159,1.0,1.0,88,0.00,,,0.01,0,Wunderground v.1.15,2013-07-03 03:30:00,